Regional Weather Roundup
Issued by NWS

Home | Current Version | Previous Version | Graphics & Text | Print | Product List | Glossary On
Versions: 1 2 3 4 5 6 7 8 9 10 11 12 13 14 15 16 17 18 19 20 21 22 23 24 25 26 27 28 29 30 31 32 33 34 35 36 37 38 39 40 41 42 43 44 45 46 47 48 49 50
000
ASUS43 KMKX 241400
RWRWI

WISCONSIN REGIONAL WEATHER ROUNDUP
NATIONAL WEATHER SERVICE MILWAUKEE/SULLIVAN WI
900 AM CDT SUN SEP 24 2017

NOTE: "FAIR" INDICATES FEW OR NO CLOUDS BELOW 12,000 FEET WITH NO
SIGNIFICANT WEATHER AND/OR OBSTRUCTIONS TO VISIBILITY.

WIZ001-002-006>008-014>016-023>028-241500-
NORTHWEST WISCONSIN

CITY           SKY/WX    TMP DP  RH WIND       PRES   REMARKS
SUPERIOR ARPT  DRZL/FOG  63  63 100 NE5       29.95S VSB<1/4
ASHLAND        SUNNY     75  67  76 W3        29.97S
HAYWARD        SUNNY     73  64  73 S7        29.99S
SIREN          MOSUNNY   73  64  72 S8        29.96S
CUMBERLAND     SUNNY     70  63  78 CALM      30.00R
RICE LAKE      SUNNY     71  64  77 SE5       30.01R
CHETEK         SUNNY     70  65  84 SE7       30.00S
LADYSMITH      SUNNY     73  63  72 S6        30.04S
EAU CLAIRE     NOT AVBL
MENOMONIE      SUNNY     70  65  84 E8        29.99S
NEW RICHMOND   MOSUNNY   72  62  69 S8        29.98R
OSCEOLA        PTSUNNY   73  63  71 SE10      29.99S
$$

WIZ003>005-009-010-017-018-241500-
NORTH CENTRAL WISCONSIN

CITY           SKY/WX    TMP DP  RH WIND       PRES   REMARKS
MANITOWISH WTR SUNNY     70  68  94 S7        30.05F
ARBOR VITAE    SUNNY     72  65  78 S6        30.06F
WOODRUFF       SUNNY     72  65  78 S6        30.06F
RHINELANDER    SUNNY     72  65  78 S5        30.09S
EAGLE RIVER    SUNNY     71  65  81 CALM      30.08R
LAND O LAKES   MOSUNNY   70  64  81 CALM      30.09S
PHILLIPS       SUNNY     72  65  78 S6        30.04S
TOMAHAWK       SUNNY     67  65  91 CALM      30.07F
MEDFORD        SUNNY     68  63  82 S7        30.06S
MERRILL        SUNNY     68  66  93 CALM      30.07S FOG
$$

WIZ029-030-035-036-043>047-241500-
CENTRAL WISCONSIN

CITY           SKY/WX    TMP DP  RH WIND       PRES   REMARKS
WAUSAU         SUNNY     71  65  81 SE3       30.05S
MOSINEE        SUNNY     72  66  83 SE3       30.07S
MARSHFIELD     SUNNY     73  64  73 S8        30.05S
STEVENS POINT  SUNNY     71  66  85 CALM      30.07S
WAUPACA        SUNNY     71  71  99 CALM      30.07R
WAUTOMA        SUNNY     73  67  81 S5        30.07S
WISC RAPIDS    SUNNY     76  66  71 S5        30.07R
CAMP DOUGLAS   NOT AVBL
$$

WIZ011>013-019>022-031-037>040-048>050-241500-
NORTHEAST WISCONSIN

CITY           SKY/WX    TMP DP  RH WIND       PRES   REMARKS
ANTIGO         SUNNY     71  66  84 S5        30.09S
SHAWANO        SUNNY     73  66  78 CALM      30.07R
OCONTO         SUNNY     72  67  87 SE3       30.07R
STURGEON BAY   SUNNY     75  68  78 S9        30.09S
GREEN BAY      SUNNY     76  68  76 S6        30.08R
MANITOWOC      SUNNY     74  69  85 S7        30.09S
APPLETON       SUNNY     73  63  68 S7        30.07S
CLINTONVILLE   SUNNY     72  66  83 CALM      30.06F
OSHKOSH        SUNNY     75  67  76 S9        30.07S
$$

WIZ032>034-041-042-053>061-241500-
SOUTHWEST WISCONSIN

CITY           SKY/WX    TMP DP  RH WIND       PRES   REMARKS
LA CROSSE      SUNNY     75  65  70 SE6       30.02S
SPARTA         SUNNY     67  63  89 CALM      30.04S
VIROQUA        SUNNY     72  65  78 SE7       30.06R
BOSCOBEL       SUNNY     71  66  84 CALM      30.05S
PRAIRIE DU CHI SUNNY     70  64  80 E3        30.04R
PLATTEVILLE    SUNNY     72  66  80 SE6       30.07R
$$

WIZ056-057-062-063-064-067-068-241500-
SOUTH CENTRAL WISCONSIN

CITY           SKY/WX    TMP DP  RH WIND       PRES   REMARKS
REEDSBURG      SUNNY     72  66  81 CALM      30.06S
BARABOO/DELLS  SUNNY     73  64  73 S5        30.06S
LONE ROCK      NOT AVBL
MINERAL POINT  SUNNY     72  68  88 SE6       30.07S
MADISON        SUNNY     75  66  73 S8        30.07R
MIDDLETON      SUNNY     72  69  88 CALM      30.08S
WATERTOWN      SUNNY     73  68  83 S3        30.08S
MONROE         SUNNY     72  63  73 S8        30.09R
JANESVILLE     SUNNY     75  64  69 S6        30.08S
$$

WIZ051-052-058>065-066-070>072-241500-
SOUTHEAST WISCONSIN

CITY           SKY/WX    TMP DP  RH WIND       PRES   REMARKS
MILWAUKEE      SUNNY     79  69  71 S3        30.09S HX  81
WAUKESHA       SUNNY     75  64  69 S3        30.11S
MILWAUKEE/TIMM SUNNY     75  63  64 S3        30.10S
RACINE         SUNNY     78  70  76 S5        30.11S HX  80
BURLINGTON     SUNNY     72  69  90 CALM      30.10R
KENOSHA        SUNNY     78  67  68 S6        30.10S HAZE    HX  80
FOND DU LAC    SUNNY     76  65  68 S7        30.08S
SHEBOYGAN      SUNNY     73  71  93 S3        30.09S FOG
WEST BEND        N/A     70  66  88 CALM      30.10S
JUNEAU         SUNNY     71  66  83 SE5       30.10R
$$

LSZ147-162-241500-
LAKE SUPERIOR

STATION/POSITION TIME  TEMP    WIND        PRES    WAVE
                       AIR SEA DIR/SP/G            HT/PER
                 (UTC) (F)     (DEG/KT/KT) (MB)    (FT/S)
W MID LAKE BUOY  1250   58 54   50/ 10/ 10 1014.7F   1
DEVILS ISLAND    1300   62      80/  4/  5 1014.6R
SAXON HARBOR     1340   76     190/  5/  8 1014.6S
$$

LMZ867-665-643>646-241500-
LAKE MICHIGAN

STATION/POSITION TIME  TEMP    WIND        PRES    WAVE
                       AIR SEA DIR/SP/G            HT/PER
                 (UTC) (F)     (DEG/KT/KT) (MB)    (FT/S)
S GREEN BAY BUOY 1300   70 68  150/  4/  4 1017.9
N MID LAKE BUOY  1250   69 66  190/  8/ 10 1019.1S   1
NORTHPORT PIER   1340   73     170/  7/ 10 1018.3S
KEWAUNEE LAKESHO 1330   66     150/  6/  8 1017.8F
SHEBOYGAN LAKESH 1300   70     180/  6/  6 1018.3F
PORT WASHINGTON  1340   76     160/  3/  4 1019.6S
ATWATER BUOY     1209   66 64  160/  4/  6 1019.0R
MILWAUKEE LAKESH 1330   72     140/  2/  3   N/A
S MID LAKE BUOY  1250   72 70  130/ 12/ 14 1018.8S   1
KENOSHA   LAKESH 1300   72     180/  4/  5 1019.0
$$

TC  - TEMPERATURE IN CELSIUS
VSB - VISIBILITY IN STATUTE MILES
WCI - WIND CHILL INDEX
HX  - HEAT INDEX





USA.gov is the U.S. government's official web portal to all federal, state and local government web resources and services.